• In Österreich
  • Länderverzeichnis
  • Für 7 Tage
  • Wassertemperatur
  • Satellitenkarten
  • Wetterkarte
  • News
  • Widgets
  • user-avatar
    Anmelden

    Stündliche Wetter Tercan

    Heute, 16 Oktober, Dienstag

    Zeit Temperatur Niederschläge Wind Luftdruck Luftfeuchtigkeit
    00:00 +13°C° 0 mm 1 m/S 624 mmHg 56%
    01:00 +12°C° 0 mm 1 m/S 624 mmHg 57%
    02:00 +12°C° 0 mm 1 m/S 624 mmHg 57%
    03:00 +12°C° 0 mm 1 m/S 624 mmHg 58%
    04:00 +11°C° 0 mm 1 m/S 623 mmHg 59%
    05:00 +11°C° 0 mm 1 m/S 623 mmHg 59%
    06:00 +11°C° 0 mm 1 m/S 623 mmHg 60%
    07:00 +12°C° 0 mm 1 m/S 624 mmHg 54%
    08:00 +14°C° 0 mm 1 m/S 625 mmHg 48%
    09:00 +16°C° 0 mm 1 m/S 626 mmHg 42%
    10:00 +19°C° 0 mm 1 m/S 626 mmHg 39%
    11:00 +20°C° 0 mm 1 m/S 626 mmHg 36%
    12:00 +19°C° 0 mm 0 m/S 626 mmHg 33%
    13:00 +20°C° 0 mm 0 m/S 626 mmHg 32%
    14:00 +20°C° 0 mm 0 m/S 626 mmHg 30%
    15:00 +20°C° 0 mm 0 m/S 626 mmHg 29%
    16:00 +21°C° 0.2 mm 1 m/S 625 mmHg 33%
    17:00 +19°C° 0.2 mm 1 m/S 625 mmHg 37%
    18:00 +18°C° 0.2 mm 1 m/S 624 mmHg 42%
    19:00 +16°C° 0.1 mm 1 m/S 624 mmHg 43%
    20:00 +16°C° 0.1 mm 1 m/S 624 mmHg 44%
    21:00 +15°C° 0.1 mm 1 m/S 624 mmHg 45%
    22:00 +14°C° 0 mm 1 m/S 624 mmHg 46%
    23:00 +14°C° 0 mm 1 m/S 624 mmHg 48%

    Morgen, 17 Oktober, Mittwoch

    Zeit Temperatur Niederschläge Wind Luftdruck Luftfeuchtigkeit
    00:00 +13°C° 0 mm 1 m/S 623 mmHg 49%
    01:00 +13°C° 0.1 mm 2 m/S 623 mmHg 50%
    02:00 +13°C° 0.1 mm 2 m/S 623 mmHg 51%
    03:00 +12°C° 0.1 mm 2 m/S 623 mmHg 52%
    04:00 +12°C° 0 mm 2 m/S 623 mmHg 53%
    05:00 +10°C° 0 mm 2 m/S 623 mmHg 55%
    06:00 +10°C° 0 mm 2 m/S 622 mmHg 56%
    07:00 +13°C° 0 mm 2 m/S 623 mmHg 51%
    08:00 +14°C° 0 mm 2 m/S 624 mmHg 46%
    09:00 +16°C° 0 mm 2 m/S 625 mmHg 42%
    10:00 +17°C° 0 mm 2 m/S 625 mmHg 38%
    11:00 +19°C° 0 mm 2 m/S 625 mmHg 35%
    12:00 +20°C° 0 mm 2 m/S 625 mmHg 32%
    13:00 +20°C° 0 mm 2 m/S 625 mmHg 31%
    14:00 +21°C° 0 mm 2 m/S 625 mmHg 30%
    15:00 +21°C° 0 mm 3 m/S 625 mmHg 29%
    16:00 +20°C° 0.3 mm 2 m/S 624 mmHg 34%
    17:00 +18°C° 0.3 mm 2 m/S 624 mmHg 39%
    18:00 +18°C° 0.3 mm 1 m/S 623 mmHg 44%
    19:00 +16°C° 0.1 mm 1 m/S 623 mmHg 47%
    20:00 +15°C° 0.1 mm 1 m/S 623 mmHg 50%
    21:00 +14°C° 0.1 mm 1 m/S 623 mmHg 53%
    22:00 +14°C° 0.1 mm 1 m/S 623 mmHg 55%
    23:00 +13°C° 0.1 mm 1 m/S 623 mmHg 57%

    übermorgen, 18 Oktober, Donnerstag

    Zeit Temperatur Niederschläge Wind Luftdruck Luftfeuchtigkeit
    00:00 +13°C° 0.1 mm 1 m/S 623 mmHg 59%
    01:00 +12°C° 0 mm 1 m/S 623 mmHg 60%
    02:00 +12°C° 0 mm 1 m/S 622 mmHg 62%
    03:00 +11°C° 0 mm 1 m/S 622 mmHg 63%
    04:00 +11°C° 0 mm 1 m/S 622 mmHg 65%
    05:00 +11°C° 0 mm 1 m/S 622 mmHg 66%
    06:00 +10°C° 0 mm 1 m/S 622 mmHg 67%
    07:00 +12°C° 0 mm 1 m/S 623 mmHg 60%
    08:00 +14°C° 0 mm 1 m/S 624 mmHg 53%
    09:00 +16°C° 0 mm 1 m/S 625 mmHg 46%
    10:00 +17°C° 0 mm 2 m/S 625 mmHg 41%
    11:00 +19°C° 0 mm 2 m/S 625 mmHg 37%
    12:00 +20°C° 0 mm 2 m/S 625 mmHg 32%
    13:00 +21°C° 0 mm 2 m/S 625 mmHg 31%
    14:00 +21°C° 0 mm 3 m/S 625 mmHg 29%
    15:00 +21°C° 0 mm 3 m/S 625 mmHg 28%
    16:00 +20°C° 0.1 mm 2 m/S 624 mmHg 33%
    17:00 +18°C° 0.1 mm 2 m/S 624 mmHg 37%
    18:00 +16°C° 0.1 mm 1 m/S 623 mmHg 42%
    19:00 +16°C° 0 mm 1 m/S 623 mmHg 44%
    20:00 +15°C° 0 mm 1 m/S 623 mmHg 46%
    21:00 +14°C° 0 mm 1 m/S 623 mmHg 48%
    22:00 +14°C° 0 mm 1 m/S 623 mmHg 50%
    23:00 +13°C° 0 mm 1 m/S 623 mmHg 52%

    19 Oktober, Freitag

    Zeit Temperatur Niederschläge Wind Luftdruck Luftfeuchtigkeit
    00:00 +13°C° 0 mm 1 m/S 622 mmHg 53%
    01:00 +12°C° 0 mm 1 m/S 622 mmHg 55%
    02:00 +12°C° 0 mm 1 m/S 622 mmHg 56%
    03:00 +11°C° 0 mm 1 m/S 622 mmHg 57%
    04:00 +11°C° 0 mm 1 m/S 622 mmHg 58%
    05:00 +11°C° 0 mm 1 m/S 622 mmHg 59%
    06:00 +11°C° 0 mm 1 m/S 622 mmHg 60%
    07:00 +13°C° 0 mm 1 m/S 623 mmHg 53%
    08:00 +15°C° 0 mm 1 m/S 624 mmHg 47%
    09:00 +18°C° 0 mm 1 m/S 624 mmHg 41%
    10:00 +19°C° 0 mm 1 m/S 625 mmHg 38%
    11:00 +20°C° 0 mm 1 m/S 625 mmHg 35%
    12:00 +21°C° 0 mm 1 m/S 625 mmHg 32%
    13:00 +21°C° 0.1 mm 2 m/S 625 mmHg 31%
    14:00 +21°C° 0.1 mm 3 m/S 625 mmHg 30%
    15:00 +21°C° 0.1 mm 3 m/S 624 mmHg 29%
    16:00 +20°C° 0.5 mm 3 m/S 624 mmHg 35%
    17:00 +18°C° 0.5 mm 2 m/S 623 mmHg 41%
    18:00 +16°C° 0.5 mm 2 m/S 623 mmHg 47%
    19:00 +16°C° 0.3 mm 1 m/S 623 mmHg 49%
    20:00 +15°C° 0.3 mm 1 m/S 623 mmHg 51%
    21:00 +15°C° 0.3 mm 1 m/S 623 mmHg 53%
    22:00 +14°C° 0.2 mm 1 m/S 623 mmHg 55%
    23:00 +14°C° 0.2 mm 1 m/S 623 mmHg 57%

    20 Oktober, Samstag

    Zeit Temperatur Niederschläge Wind Luftdruck Luftfeuchtigkeit
    00:00 +13°C° 0.2 mm 1 m/S 622 mmHg 60%
    01:00 +13°C° 0.2 mm 1 m/S 622 mmHg 61%
    02:00 +13°C° 0.2 mm 1 m/S 622 mmHg 63%
    03:00 +12°C° 0.2 mm 1 m/S 622 mmHg 64%
    04:00 +12°C° 0.2 mm 1 m/S 622 mmHg 65%
    05:00 +12°C° 0.2 mm 1 m/S 622 mmHg 66%
    06:00 +11°C° 0.2 mm 1 m/S 622 mmHg 68%
    07:00 +13°C° 0.2 mm 1 m/S 622 mmHg 63%
    08:00 +14°C° 0.2 mm 1 m/S 623 mmHg 58%
    09:00 +15°C° 0.2 mm 1 m/S 624 mmHg 53%
    10:00 +16°C° 0.3 mm 2 m/S 624 mmHg 49%
    11:00 +18°C° 0.3 mm 2 m/S 624 mmHg 45%
    12:00 +19°C° 0.3 mm 3 m/S 624 mmHg 41%
    13:00 +19°C° 0.2 mm 3 m/S 624 mmHg 40%
    14:00 +19°C° 0.2 mm 3 m/S 624 mmHg 38%
    15:00 +19°C° 0.2 mm 4 m/S 623 mmHg 37%
    16:00 +18°C° 0.3 mm 3 m/S 623 mmHg 42%
    17:00 +17°C° 0.3 mm 2 m/S 623 mmHg 47%
    18:00 +15°C° 0.3 mm 2 m/S 622 mmHg 53%
    19:00 +15°C° 0.5 mm 2 m/S 622 mmHg 57%
    20:00 +14°C° 0.5 mm 1 m/S 622 mmHg 61%
    21:00 +13°C° 0.5 mm 1 m/S 622 mmHg 65%
    22:00 +13°C° 0.2 mm 1 m/S 621 mmHg 68%
    23:00 +12°C° 0.2 mm 1 m/S 621 mmHg 70%

    21 Oktober, Sonntag

    Zeit Temperatur Niederschläge Wind Luftdruck Luftfeuchtigkeit
    00:00 +11°C° 0.2 mm 1 m/S 621 mmHg 73%
    01:00 +11°C° 0 mm 1 m/S 621 mmHg 75%
    02:00 +11°C° 0 mm 1 m/S 621 mmHg 76%
    03:00 +10°C° 0 mm 1 m/S 620 mmHg 78%
    04:00 +10°C° 0 mm 1 m/S 620 mmHg 79%
    05:00 +10°C° 0 mm 1 m/S 620 mmHg 80%
    06:00 +10°C° 0 mm 1 m/S 620 mmHg 81%
    07:00 +11°C° 0.1 mm 1 m/S 621 mmHg 75%
    08:00 +12°C° 0.1 mm 1 m/S 622 mmHg 69%
    09:00 +14°C° 0.1 mm 1 m/S 622 mmHg 64%
    10:00 +15°C° 0.3 mm 1 m/S 622 mmHg 59%
    11:00 +16°C° 0.3 mm 2 m/S 623 mmHg 54%
    12:00 +17°C° 0.3 mm 2 m/S 623 mmHg 50%
    13:00 +17°C° 0.6 mm 2 m/S 623 mmHg 50%
    14:00 +17°C° 0.6 mm 3 m/S 622 mmHg 49%
    15:00 +17°C° 0.6 mm 3 m/S 622 mmHg 49%
    16:00 +16°C° 0.8 mm 2 m/S 622 mmHg 55%
    17:00 +15°C° 0.8 mm 2 m/S 622 mmHg 61%
    18:00 +14°C° 0.8 mm 1 m/S 621 mmHg 67%
    19:00 +13°C° 0.5 mm 1 m/S 621 mmHg 69%
    20:00 +13°C° 0.5 mm 1 m/S 621 mmHg 72%
    21:00 +12°C° 0.5 mm 1 m/S 621 mmHg 75%
    22:00 +12°C° 0.1 mm 1 m/S 621 mmHg 76%
    23:00 +11°C° 0.1 mm 1 m/S 621 mmHg 78%
    Mehr zeigen